Powrót do katalogu

FENGYUN 1C DEB

AktywnyPO
NORAD 30872·DEBRIS·🇨🇳 China

Wystrzelony May 10, 1999 z Taiyuan Satellite Launch Center

Loading…

Następne Przeloty (najbliższe 24 godziny)

TLE

ŚwieżeSource: Space-Track

Epoka: Sep 14, 2026, 04:35 UTC

1 30872U 99025AXJ 26257.19156714  .00001479  00000-0  47321-3 0  9992
2 30872  99.1650 334.2132 0040777 300.1089  86.9018 14.40784017 16865

Śledź FENGYUN 1C DEB w czasie rzeczywistym z AllMySat

Download on the App Store